Regional Weather Roundup
Issued by NWS Bismarck, ND

Home | Current Version | Previous Version | Text Only | Print | Product List | Glossary On
Versions: 1 2 3 4 5 6 7 8 9 10 11 12 13 14 15 16 17 18 19 20 21 22 23 24 25 26 27 28 29 30 31 32 33 34 35 36 37 38 39 40 41 42 43 44 45 46 47 48 49 50
000
ASUS43 KBIS 280520
RWRBIS

NWR BROADCAST TEXT
NATIONAL WEATHER SERVICE BISMARCK ND
1100 PM CST THU NOV 27 2014

NOTE: "FAIR" INDICATES FEW OR NO CLOUDS BELOW 12,000 FEET WITH NO
SIGNIFICANT WEATHER AND/OR OBSTRUCTIONS TO VISIBILITY.


CITY           SKY/WX    TMP DP  RH WIND       PRES   REMARKS
WILLISTON      CLOUDY    15  11  83 CALM      29.83R
MINOT          CLOUDY    10   5  80 E13       29.91S WCI  -5
MINOT AFB      CLOUDY    10   7  85 SE14      29.92S WCI  -5
BISMARCK       CLOUDY    12   8  84 E9        29.91F WCI   0
DICKINSON      PTCLDY    23  18  81 SE3       29.73F
GARRISON         N/A     11   8  88 SE12      29.87F WCI  -3
HETTINGER ARPT PTCLDY    21  18  88 SE3       29.78F
JAMESTOWN      CLOUDY     6   2  83 SE14      29.99F WCI -11
BEACH          FAIR      39  32  75 NW5       29.74S
CARRINGTON     CLOUDY     7   5  92 SE17      29.99F WCI -12
CROSBY         CLOUDY    14  10  85 E16       29.84F WCI  -2
HARVEY         CLOUDY     7   3  85 SE12      29.96F WCI  -9
HAZEN          FAIR      10   7  85 E6        29.87F WCI   1
LINTON         FAIR      10   9  92 SE10      29.90F WCI  -3
MANDAN         FAIR      10   7  85 E10       29.87F WCI  -3
OAKES            N/A      9   5  85 E16       30.00F WCI  -9
RUGBY          MOCLDY     7   1  78 SE16      29.97F WCI -11
STANLEY        CLOUDY    10  10 100 E13       29.83F WCI  -5
TIOGA          CLOUDY    12  12 100 E12       29.85F WCI  -2
$$

CITY           SKY/WX    TMP DP  RH WIND       PRES   REMARKS
GRAND FORKS    CLOUDY     8   3  80 S9        30.16R WCI  -5
GRAND FORKS AF FLURRIES   9   3  78 S9        30.14F WCI  -5
DEVILS LAKE    CLOUDY     9  -2  61 SE12      29.98F WCI  -6
FARGO          LGT SNOW  11   5  77 SE14      30.11F WCI  -5
CANDO          CLOUDY     7   3  85 SE13      30.00F WCI  -9
CAVALIER       MOCLDY     7   1  78 S8        30.13F WCI  -6
GRAFTON        LGT SNOW   9   5  85 SE9       30.14F WCI  -5
GWINNER        CLOUDY    10   5  79 SE18      30.03F WCI  -8
LANGDON        CLOUDY     7   1  78 SE9       30.02F WCI  -7
ROLLA          CLOUDY     7   3  85 SE9       29.99S WCI  -7
WALHALLA       FLURRIES   7   1  78 SE7       30.12F WCI  -5
$$

CITY           SKY/WX    TMP DP  RH WIND       PRES   REMARKS
ABERDEEN       MOCLDY    18  11  74 SE8       29.98F WCI   8
MOBRIDGE       PTCLDY    15  10  80 E12       29.85F WCI   2
BUFFALO          N/A     27  22  81 CALM      29.71F
RAPID CITY     CLEAR     37  27  67 CALM      29.85F
GLASGOW        CLOUDY    23  21  92 E16       29.72F FOG     WCI  10
SIDNEY         CLEAR     16  12  86 N9        29.78F WCI   4
WOLF POINT     PTCLDY    20  16  84 E10       29.77F WCI   9
GLENDIVE       PTCLDY    28  27  93 NE8       29.72F
MILES CITY     CLOUDY    38  32  79 S9        29.73F
BAKER          PTCLDY    38  30  73 W5        29.75F
$$

CITY           SKY/WX    TMP DP  RH WIND       PRES   REMARKS
BILLINGS       CLOUDY    47  30  51 SW12      29.76F
GREAT FALLS    CLEAR     48  35  60 SW17      29.66F
REGINA         FLURRIES  14  12  92 E14       29.87F WCI  -1
ESTEVAN        FLURRIES   9   7  92 E13       29.89S WCI  -7
$$



USA.gov is the U.S. government's official web portal to all federal, state and local government web resources and services.